Location: Waco, TX
(31.5480°N, 97.1670°W)
Time: 08:38:29
(UTC-05:00)

ISS - Pass Details

Date: 17 October 2019
Orbit: 411 x 421 km, 51.6° (Epoch: 18 October)

Event Time Altitude Azimuth Distance (km) Brightness Sun altitude
Rises 16:28:36 0° 326° (NW) 2,345 0.1 28.0°
Reaches altitude 10° 16:30:54 10° 339° (NNW) 1,479 -1.0 27.6°
Maximum altitude 16:33:46 26° 39° (NE) 838 -2.5 27.1°
Drops below altitude 10° 16:36:37 10° 99° (E) 1,471 -1.3 26.6°
Sets 16:38:54 0° 112° (ESE) 2,329 -0.3 26.2°
